GW4454 Weather Reports


time (UTC)temp
C
wind
direction
speed
KPH
gust
KPH
rain 1hr
cm
rain 24hr
cm
rain mn
cm
humidity
%
barometer
mb
20260506221522 21 75 4.8 27.4 0.00 0.00 0.00 27 1019.0
20260506220024 22 50 8.0 22.5 0.00 0.00 0.00 27 1019.3
20260506214526 21 24 11.3 25.7 0.00 0.00 0.00 28 1019.3
20260506213028 21 360 12.9 20.9 0.00 0.00 0.00 28 1019.5
20260506211522 21 105 9.7 27.4 0.00 0.00 0.00 28 1019.6
20260506210009 21 35 12.9 20.9 0.00 0.00 0.00 29 1019.6
20260506204506 21 352 6.4 16.1 0.00 0.00 0.00 29 1019.6
20260506203013 21 46 12.9 22.5 0.00 0.00 0.00 29 1019.8
20260506201519 20 57 9.7 25.7 0.00 0.00 0.00 30 1019.9
20260506200003 20 87 4.8 20.9 0.00 0.00 0.00 29 1020.1
20260506194504 19 69 3.2 19.3 0.00 0.00 0.00 30 1020.1
20260506193009 19 32 4.8 17.7 0.00 0.00 0.00 26 1020.1
20260506191514 19 303 3.2 16.1 0.00 0.00 0.00 30 1020.2
20260506190019 19 331 8.0 16.1 0.00 0.00 0.00 30 1020.2
20260506184504 18 329 8.0 19.3 0.00 0.00 0.00 33 1020.3
20260506183008 18 24 3.2 12.9 0.00 0.00 0.00 34 1020.3
20260506181513 18 97 3.2 14.5 0.00 0.00 0.00 35 1020.3
20260506180025 17 29 4.8 14.5 0.00 0.00 0.00 37 1020.3
20260506174522 17 28 8.0 14.5 0.00 0.00 0.00 36 1020.2
20260506173016 17 327 8.0 12.9 0.00 0.00 0.00 38 1020.2
20260506171514 17 88 3.2 8.0 0.00 0.00 0.00 39 1020.2
20260506170016 16 94 6.4 12.9 0.00 0.00 0.00 40 1019.9
20260506164520 16 46 3.2 14.5 0.00 0.00 0.00 43 1019.9
20260506163030 15 306 4.8 12.9 0.00 0.00 0.00 43 1019.7
20260506161508 16 352 4.8 8.0 0.00 0.00 0.00 42 1019.7
20260506160017 15 283 1.6 12.9 0.00 0.00 0.00 43 1019.6
20260506154520 13 237 4.8 12.9 0.00 0.00 0.00 43 1019.5
20260506153022 13 257 11.3 17.7 0.00 0.00 0.00 47 1019.5
20260506151529 12 273 9.7 12.9 0.00 0.00 0.00 48 1019.5
20260506150010 12 317 1.6 6.4 0.00 0.00 0.00 51 1019.6
20260506144519 11 331 3.2 8.0 0.00 0.00 0.00 53 1019.4
20260506143026 12 63 0.0 4.8 0.00 0.00 0.00 49 1019.1
20260506141530 11 104 1.6 3.2 0.00 0.00 0.00 49 1019.0
20260506140026 10 84 3.2 8.0 0.00 0.00 0.00 52 1018.6
20260506134513 10 119 6.4 11.3 0.00 0.00 0.00 53 1018.4
20260506133018 10 144 4.8 12.9 0.00 0.00 0.00 54 1018.3
20260506131530 8 216 6.4 9.7 0.00 0.00 0.00 55 1018.2
20260506130026 8 228 4.8 9.7 0.00 0.00 0.00 56 1018.2
20260506124515 8 253 1.6 6.4 0.00 0.00 0.00 56 1018.2
20260506123022 9 171 4.8 8.0 0.00 0.00 0.00 53 1017.9
20260506121508 10 174 1.6 8.0 0.00 0.00 0.00 52 1017.9
20260506120004 10 221 1.6 4.8 0.00 0.00 0.00 52 1017.6
20260506114504 10 171 4.8 14.5 0.00 0.00 0.00 54 1017.6
20260506113005 9 225 12.9 17.7 0.00 0.00 0.00 59 1017.6
20260506111503 8 242 14.5 19.3 0.00 0.00 0.00 60 1017.6
20260506110004 8 234 14.5 24.1 0.00 0.00 0.00 60 1017.6
20260506104506 8 247 19.3 24.1 0.00 0.00 0.00 59 1017.6
20260506103008 8 229 17.7 24.1 0.00 0.00 0.00 60 1017.4
20260506101506 8 246 14.5 25.7 0.00 0.00 0.00 62 1017.4
20260506100004 8 239 19.3 30.6 0.00 0.00 0.00 64 1017.5
20260506094514 7 252 17.7 24.1 0.00 0.00 0.00 64 1017.4
20260506093008 8 240 17.7 27.4 0.00 0.00 0.00 65 1017.4
20260506091508 7 264 20.9 29.0 0.00 0.00 0.00 68 1017.4
20260506090007 7 236 22.5 27.4 0.00 0.00 0.00 69 1017.5
20260506084505 7 242 22.5 30.6 0.00 0.00 0.00 70 1017.5
20260506083005 7 245 24.1 30.6 0.00 0.00 0.00 69 1017.8
20260506081509 7 257 17.7 24.1 0.00 0.00 0.00 67 1017.7
20260506073015 7 240 20.9 27.4 0.00 0.00 0.00 66 1017.6
20260506071508 7 265 19.3 24.1 0.00 0.00 0.00 65 1017.6
20260506061508 8 228 8.0 22.5 0.00 0.00 0.00 66 1017.1
20260506044533 8 234 9.7 17.7 0.00 0.00 0.00 67 1016.4
20260506043012 8 213 14.5 27.4 0.00 0.00 0.00 69 1016.2
20260506041512 8 219 17.7 30.6 0.00 0.00 0.00 72 1016.2
20260506040013 8 265 20.9 29.0 0.00 0.00 0.00 72 1016.0
20260506034525 8 229 17.7 25.7 0.00 0.00 0.00 72 1016.0
20260506033016 8 238 14.5 25.7 0.00 0.00 0.00 72 1016.2
20260506031516 8 239 14.5 22.5 0.00 0.00 0.00 71 1015.8
20260506030004 8 237 17.7 27.4 0.00 0.00 0.00 71 1015.6
20260506024509 8 268 20.9 29.0 0.00 0.00 0.00 70 1015.4
20260506023016 8 263 19.3 30.6 0.00 0.00 0.00 69 1015.2
20260506021516 9 262 19.3 27.4 0.00 0.00 0.00 68 1014.9
20260506020020 10 236 22.5 37.0 0.00 0.00 0.00 67 1014.9
20260506014507 10 240 20.9 29.0 0.00 0.00 0.00 66 1014.6
20260506013014 10 265 25.7 33.8 0.00 0.00 0.00 65 1014.6
20260506011520 10 254 20.9 29.0 0.00 0.00 0.00 63 1014.6
20260506010019 11 254 17.7 32.2 0.00 0.00 0.00 62 1014.6
20260506004532 11 240 24.1 33.8 0.00 0.00 0.00 62 1014.4
20260506003011 11 259 17.7 30.6 0.00 0.00 0.00 61 1014.2
20260506001513 11 246 20.9 32.2 0.00 0.00 0.00 62 1014.1
20260506000025 11 234 20.9 33.8 0.00 0.00 0.00 62 1014.0
20260505234533 11 225 20.9 33.8 0.00 0.00 0.00 63 1013.9
20260505233023 11 259 25.7 33.8 0.00 0.00 0.00 62 1014.0
20260505231516 12 238 24.1 37.0 0.00 0.00 0.00 58 1014.1
20260505230020 12 236 22.5 33.8 0.00 0.00 0.00 55 1014.1
20260505224524 12 283 27.4 40.2 0.00 0.00 0.00 55 1014.1
20260505223023 12 259 25.7 32.2 0.00 0.00 0.00 55 1014.1